SCP
0 0 0 0 0 0 0 0 0 0 0 0 0 0 0 0 0 0 0 0 0 0 0 0 0 0 0 0 0 0 0 0 0 0 0 0 0 0 0 0 0 0 0 0
0 0 0 0 0 0 0 0 0 0 0 0 0 0 0 0 0 0 0 0 0 0 0 0 0 0 0 0 0 0 0 0 0 0 0 0 0 0 0 0 0 0 0 0
0 0 0 0 0 0 0 0 0 0 0 0 0 0 0 0 0 0 0 0 0 0 0 0 0 0 0 0 0 0 0 0 0 0 0 0 0 0 0 0 0 0 0 0
0 0 0 0 0 0 0 0 0 0 0 0 0 0 0 0 0 0 0 0 0 0 0 0 0 0 0 0 0 0 0 0 0 0 0 0 0 0 0 0 0 0 0 0
0 0 0 0 0 0 0 0 0 0 0 0 0 0 0 0 0 0 0 0 0 0 0 0 0 0 0 0 0 0 0 0 0 0 0 0 0 0 0 0 0 0 0 0
0 0 0 0 0 0 0 0 0 0 0 0 0 0 0 0 0 0 0 0 0 0 0 0 0 0 0 0 0 0 0 0 0 0 0 0 0 0 0 0 0 0 0 0
0 0 0 0 0 0 0 0 0 0 0 0 0 0 0 0 0 0 0 0 0 0 0 0 0 0 0 0 0 0 0 0 0 0 0 0 0 0 0 0 0 0 0 0
0 0 0 0 0 0 0 0 0 0 0 0 0 0 0 0 0 0 0 0 0 0 0 0 0 0 0 0 0 0 0 0 0 0 0 0 0 0 0 0 0 0 0 0
0 0 0 0 0 0 0 0 0 0 0 0 0 0 0 0 0 0 0 0 0 0 0 0 0 0 0 0 0 0 0 0 0 0 0 0 0 0 0 0 0 0 0 0
0 0 0 0 0 0 0 0 0 0 0 0 0 0 0 0 0 0 0 0 0 0 0 0 0 0 0 0 0 0 0 0 0 0 0 0 0 0 0 0 0 0 0 0
0 0 0 0 0 0 0 0 0 0 0 0 0 0 0 0 0 0 0 0 0 0 0 0 0 0 0 0 0 0 0 0 0 0 0 0 0 0 0 0 0 0 0 0
0 0 0 0 0 0 0 0 0 0 0 0 0 0 0 0 0 0 0 0 0 0 0 0 0 0 0 0 0 0 0 0 0 0 0 0 0 0 0 0 0 0 0 0
0 0 0 0 0 0 0 0 0 0 0 0 0 0 0 0 0 0 0 0 0 0 0 0 0 0 -0 0 0 0 -0 -0 -0 0 0 0 0 0 0 0 0 0 0 0
0 0 0 0 0 0 0 0 0 0 0 0 0 0 0 0 0 0 0 0 0 0 0 -0 -0 -0 -0 0 0 0 -0 -0 -0 0 0 0 0 0 0 0 0 0 0 0
0 0 0 0 0 0 0 0 0 0 0 0 0 0 0 0 0 0 0 0 0 0 0 0 -0 -0 -0 -0 0 0 -0 -0 -0 0 0 0 0 0 0 0 0 0 0 0
0 0 0 0 0 0 0 0 0 0 0 0 -0 0 0 0 0 0 0 0 0 0 0 0 0 0 0 -0 -0 0 -0 -0 0 0 0 0 0 0 0 0 0 0 0 0
0 0 0 0 0 0 0 0 0 0 0 0 0 0 0 0 0 0 0 0 0 0 0 0 0 0 0 0 0 -0 0 0 0 0 0 0 0 0 0 0 0 0 0 0
0 0 0 0 0 0 0 0 0 0 0 0 0 0 0 0 0 0 0 0 0 0 0 0 0 0 0 0 0 0 0 0 0 0 0 0 0 0 0 0 0 0 0 0
0 0 0 0 0 0 0 0 0 0 0 0 0 0 0 0 0 0 0 0 0 0 0 0 0 0 0 0 0 0 0 0 0 0 0 0 0 0 0 0 0 0 0 0
0 0 0 0 0 0 0 0 0 0 0 0 0 0 0 0 0 0 0 0 0 0 0 0 0 0 0 0 0 0 0 0 0 0 0 0 0 0 0 0 0 0 0 0
0 0 0 0 0 0 0 0 0 0 0 0 0 0 0 0 0 0 0 0 0 0 0 0 0 0 0 0 0 0 0 0 0 0 0 0 0 0 0 0 0 0 0 0
0 0 0 0 0 0 0 0 0 0 0 0 0 0 0 0 0 0 0 0 0 0 0 0 0 0 0 0 0 0 0 0 0 0 0 0 0 0 0 0 0 0 0 0
0 0 0 0 0 0 0 0 0 0 0 0 0 0 0 0 0 0 0 -0 0 0 0 0 0 0 0 0 0 0 0 0 0 0 0 0 0 0 0 0 0 0 0 0
0 0 0 0 0 0 0 0 0 0 0 0 0 0 0 0 0 0 0 -0 0 0 0 0 0 0 0 0 0 0 0 0 0 0 0 0 0 0 0 0 0 0 0 0
0 0 0 0 0 0 0 0 0 0 0 0 0 0 0 0 0 0 -0 -0 0 0 0 0 0 0 0 0 0 0 0 0 0 0 0 0 0 0 0 0 0 0 0 0
0 0 0 0 0 0 0 0 0 0 0 0 0 0 0 0 0 0 0 0 0 0 0 0 0 0 0 0 0 0 0 0 0 0 0 0 0 0 0 0 0 0 0 0
Wind_Speed
1 2 4 7 7 6 3 3 4 2 1 2 2 2 2 2 3 3 3 3 3 3 3 4 4 5 5 4 5 4 4 3 3 3 3 3 2 2 2 2 3 2 2 2
2 5 9 5 4 4 4 3 3 0 2 2 2 1 1 2 4 5 4 5 5 4 4 5 5 5 4 4 5 5 4 4 3 3 2 3 3 2 2 2 3 3 2 2
7 8 2 2 2 3 3 5 5 4 2 4 2 2 1 1 1 3 3 4 5 7 8 7 5 5 5 5 5 5 4 4 4 4 4 4 3 3 3 3 3 3 3 2
7 6 3 2 3 5 4 3 5 5 4 1 2 1 3 2 2 4 4 4 5 6 6 7 7 7 6 5 5 5 5 5 4 4 4 4 3 2 1 1 2 3 4 3
6 3 2 3 4 4 3 5 6 5 4 2 2 1 5 1 4 7 7 7 6 6 7 8 8 8 7 6 5 5 5 5 4 4 5 6 4 2 1 2 3 3 4 4
6 3 3 3 3 6 7 7 7 6 5 1 2 2 6 5 8 7 8 8 8 7 7 7 6 6 6 5 5 5 5 4 4 4 5 6 6 4 3 3 2 2 2 3
4 2 2 4 5 2 4 6 4 4 3 4 2 2 9 7 6 8 10 11 9 8 8 8 8 8 7 7 6 5 6 4 3 4 4 4 5 4 4 3 2 1 1 1
3 5 4 4 7 8 5 7 7 4 4 4 1 5 8 4 4 6 8 8 8 8 8 9 10 9 8 8 7 7 6 5 4 4 3 3 4 3 2 2 2 2 1 1
7 7 2 3 3 9 7 4 5 7 2 1 4 6 7 1 3 5 7 8 10 10 10 10 10 9 9 9 8 8 7 5 5 4 4 3 3 3 3 2 2 1 1 1
8 4 3 2 4 4 5 8 6 5 4 2 4 4 5 6 7 7 8 10 10 9 9 9 9 9 9 8 7 7 7 6 5 4 4 3 3 3 3 2 2 2 1 1
5 5 2 1 4 6 4 4 5 5 4 5 3 8 8 10 11 12 12 12 11 11 12 11 9 9 7 7 7 7 6 5 4 4 4 3 3 3 3 2 2 2 1 1
4 5 2 3 2 2 4 7 8 5 4 4 3 9 5 8 9 11 11 10 10 11 10 10 9 8 7 7 7 7 7 6 5 5 4 4 3 3 3 2 3 2 2 2
5 6 3 4 4 1 2 4 4 6 6 5 4 9 3 3 6 8 9 9 9 9 9 8 8 8 8 8 8 7 7 7 5 5 5 4 4 3 3 3 3 2 2 2
5 4 7 9 8 5 4 4 6 6 5 5 8 9 6 4 7 8 8 9 9 10 10 10 9 8 8 8 8 8 7 6 6 6 5 5 5 5 4 4 3 3 3 3
4 4 5 5 4 4 4 6 8 7 8 9 9 9 11 9 11 11 10 9 9 9 10 12 11 9 8 8 7 7 7 6 6 6 6 6 5 4 3 3 3 3 3 4
2 3 2 2 3 3 4 6 8 8 6 7 5 9 10 5 5 7 9 11 12 12 13 12 11 11 10 10 9 8 8 7 6 7 7 5 4 4 4 4 3 3 4 4
1 3 3 3 1 1 5 8 8 6 6 8 9 10 3 4 9 12 12 13 14 14 14 14 14 13 12 11 10 10 9 7 7 6 6 5 5 5 5 4 3 4 4 4
3 3 3 2 2 6 9 3 5 5 6 7 7 6 6 8 7 6 8 13 13 12 12 12 11 11 9 9 8 8 7 8 7 6 6 5 5 5 5 4 4 5 4 4
5 6 3 3 3 6 6 2 3 4 5 5 6 5 3 2 3 1 6 10 12 14 12 11 11 10 9 10 9 9 8 7 7 7 7 7 6 6 5 5 6 4 4 5
3 4 5 3 4 6 8 2 2 3 5 3 3 4 4 6 4 6 7 9 8 7 8 8 8 7 9 9 9 10 9 8 9 9 8 7 6 6 6 6 6 4 4 5
2 3 3 4 4 8 6 1 3 4 7 2 2 3 6 7 6 3 6 7 7 7 7 8 9 9 9 10 11 10 9 10 10 7 6 6 6 6 6 5 4 4 4 5
4 4 5 4 3 9 2 2 5 6 3 2 2 3 5 4 1 1 4 6 8 8 8 9 9 8 7 10 11 10 10 9 6 6 6 6 6 5 5 5 5 4 4 5
5 6 6 8 8 5 2 4 4 2 3 3 3 3 3 3 2 2 3 5 7 8 9 8 9 8 7 9 10 11 9 6 6 6 6 5 5 5 4 4 5 4 4 4
3 2 2 4 7 6 6 5 4 4 6 5 4 3 2 3 2 2 3 4 5 6 8 8 9 9 8 8 8 7 5 7 7 6 6 4 4 5 4 4 4 5 5 5
4 4 2 5 7 6 5 3 3 3 4 3 1 2 2 3 2 3 3 4 5 5 6 7 9 9 8 8 7 6 6 7 6 6 5 4 4 5 4 5 5 7 7 7
4 6 6 6 6 4 4 3 1 1 2 1 1 1 2 3 3 3 3 3 5 6 6 7 7 6 6 6 5 4 5 6 6 5 4 4 4 4 4 5 5 9 11 12
Wind_Direction
105 87 236 228 204 210 215 226 259 273 349 84 111 134 182 159 143 152 171 174 153 143 129 122 114 106 101 101 107 109 107 105 108 98 97 94 76 52 47 47 53 61 72 88
22 259 241 222 194 190 203 219 233 330 27 90 103 113 197 189 183 185 185 174 158 138 123 120 112 109 116 126 119 115 115 110 111 117 114 109 105 85 73 40 44 41 54 72
211 247 239 189 201 192 213 196 199 170 98 52 73 13 255 253 197 177 186 176 162 155 149 142 140 134 139 144 145 135 131 120 113 114 102 89 72 53 39 30 25 15 32 61
233 255 242 244 237 181 234 209 152 133 115 21 53 244 264 216 221 207 194 185 179 165 154 154 152 153 159 156 141 133 124 112 107 109 114 122 120 112 78 46 31 24 36 58
244 229 213 249 243 157 150 93 99 97 102 58 20 151 280 176 218 220 206 198 196 179 166 164 163 161 161 154 146 135 119 108 105 105 114 112 108 112 96 68 59 42 32 38
244 235 208 195 63 113 120 78 61 54 68 360 244 176 270 221 211 205 202 200 199 185 171 164 156 150 149 147 142 135 124 113 111 115 119 126 129 128 113 93 78 50 32 28
286 277 208 133 103 75 97 97 47 1 5 257 217 215 252 238 211 191 192 197 196 185 172 165 163 165 164 162 157 147 140 138 137 131 132 136 139 137 135 133 122 108 62 26
211 275 221 181 167 171 174 143 157 198 227 270 256 242 255 249 206 188 184 185 185 183 179 178 178 176 176 173 166 160 160 159 159 152 151 145 143 137 142 152 158 163 178 218
189 244 257 184 161 141 143 165 155 128 136 286 272 275 295 219 191 181 175 174 186 188 185 184 182 180 180 178 176 173 169 168 170 166 158 157 158 157 164 166 163 177 214 233
168 220 256 162 97 48 135 141 113 122 145 262 287 265 242 212 201 191 185 188 193 187 185 183 183 184 182 179 173 170 169 172 172 169 173 170 176 176 174 169 184 200 224 249
153 176 257 95 181 175 127 116 109 112 146 159 261 273 225 199 189 189 195 193 190 187 187 186 185 182 175 165 164 167 169 167 170 173 174 169 175 172 169 183 207 211 224 242
153 138 208 250 266 167 160 164 147 152 197 173 184 267 262 200 190 186 191 191 190 188 185 181 176 169 167 169 170 173 174 175 179 174 172 177 176 170 179 205 223 223 236 253
142 124 97 350 342 326 172 160 148 126 120 154 176 262 303 176 184 190 188 187 183 178 174 169 167 173 178 177 177 178 178 181 174 167 170 175 180 185 201 219 231 236 246 264
124 135 167 195 213 195 197 178 156 136 151 193 219 246 275 216 199 199 193 186 176 175 175 173 178 182 182 179 179 179 182 179 171 169 174 187 198 202 211 221 231 238 243 255
126 179 203 223 223 179 204 202 180 185 189 190 224 225 243 221 205 201 189 176 169 174 180 182 184 184 181 177 179 180 181 177 172 171 184 202 205 205 210 223 236 244 248 254
100 176 169 246 225 201 235 235 210 212 204 215 238 254 247 220 177 181 179 175 181 186 190 189 186 182 184 183 182 180 182 179 170 179 196 201 197 201 212 226 237 247 255 261
102 139 138 233 272 117 251 229 206 210 205 187 214 238 218 185 193 193 187 185 191 191 189 187 188 188 188 186 179 182 182 169 172 187 195 194 195 207 221 227 231 242 249 252
160 135 147 169 127 224 242 237 197 207 234 214 231 244 216 217 210 196 183 185 192 190 188 189 187 187 184 175 171 170 161 166 178 188 196 197 197 212 223 225 236 243 243 248
171 145 136 146 198 264 287 243 184 191 257 220 226 249 231 147 91 271 204 191 193 188 184 184 183 179 171 170 166 158 163 170 181 194 201 202 200 208 216 227 238 239 239 251
95 119 129 148 176 231 246 235 180 133 271 248 211 223 173 135 155 242 201 183 186 178 171 168 160 152 162 167 157 159 170 178 196 203 204 202 198 205 217 227 234 231 232 250
105 97 145 173 215 257 252 250 124 164 242 272 220 207 178 187 203 218 155 169 170 167 162 152 153 164 173 160 156 168 177 197 204 196 193 197 202 210 220 227 229 233 242 257
180 168 180 154 199 255 245 142 185 220 270 267 241 210 198 218 250 152 157 163 159 156 152 153 159 168 160 159 164 175 195 203 186 181 192 204 209 216 219 221 237 236 238 257
203 194 187 189 215 246 232 221 244 230 255 255 241 242 195 194 201 183 173 167 163 161 159 157 159 159 161 170 173 185 201 179 171 182 201 211 214 218 217 220 237 243 238 246
249 167 175 263 268 261 256 255 257 237 239 253 247 236 190 192 185 166 170 168 161 158 157 152 151 161 173 179 188 194 173 162 170 191 208 209 213 227 227 226 229 233 241 246
223 173 203 259 275 295 289 253 257 262 263 267 266 180 179 159 156 156 162 165 157 150 149 152 161 171 177 175 185 186 168 163 178 196 209 215 221 229 239 239 232 232 235 229
203 182 186 232 241 219 265 280 267 270 295 285 82 73 99 127 138 136 151 153 146 144 142 147 156 159 160 160 172 178 167 167 175 195 213 218 224 231 238 252 266 244 241 251